Location: Arcueil
(48.7999°N, 2.3326°E)
Time: 04:17:20
(UTC+00:00)

Envisat - Visible Passes

Search period start: 10 June 2023 00:00
Search period end: 20 June 2023 00:00
Orbit: 763 x 765 km, 98.2° (Epoch: 09 June)

Date Brightness Start Highest point End Pass type
(mag) Time Alt. Az. Time Alt. Az. Time Alt. Az.
10 Jun 4.6 03:06:16 10° NNE 03:10:54 34° E 03:15:30 10° SSE visible
11 Jun 5.5 02:30:05 10° NE 02:33:23 17° E 02:36:39 10° SE visible
13 Jun 4.9 02:54:02 10° NE 02:58:22 27° E 03:02:40 10° SSE visible
14 Jun 5.6 02:18:20 10° ENE 02:20:46 13° E 02:23:12 10° ESE visible
16 Jun 5.2 02:41:54 10° NE 02:45:48 22° E 02:49:41 10° SE visible
17 Jun 5.9 02:07:36 10° ENE 02:08:07 10° E 02:08:39 10° E visible
19 Jun 5.5 02:29:52 10° NE 02:33:12 17° E 02:36:31 10° SE visible
